Location: Betzi
(47.2343°N, 9.5260°E)
Time: 22:59:26
(UTC+00:00)

Cosmos 1980 - Pass Details

Date: 27 May 2022
Orbit: 840 x 846 km, 71.0° (Epoch: 29 June)

Event Time Altitude Azimuth Distance (km) Brightness Sun altitude
Exits shadow 00:05:50 42° 187° (S) 1,185 4.0 -20.7°
Maximum altitude 00:07:47 74° 114° (ESE) 878 3.7 -20.6°
Drops below altitude 10° 00:13:25 10° 30° (NNE) 2,466 7.2 -20.4°
Sets 00:15:53 0° 29° (NNE) 3,405 8.3 -20.3°
